TVS3WY LKPR-LGRP

Flight info

Callsign TVS3WY
Flight time N/A
Altitude 35000
Route VOZ DCT LIKSA DCT PEPIK DCT VEDER DCT XOMBA DCT KEROP DCT TISAK DCT IBISI DCT KRATO DCT MAKED DCT SIGFO DCT KEA UN132 NIBOX UN1 ROXOL
Aircraft B738/M-SDE3FGIJ1RWXYZ/LB1

Departure

Time 2026-05-08 05:41
Airport Václav Havel Airport Prague (LKPR)

Arrival

Time N/A
Airport Rhodes International Airport "Diagoras" (LGRP)
Time Latitude Longitude Altitude Speed Heading
2026-05-08 05:11 50.10411 14.26636 1168 ft 0 kts 34°
2026-05-08 05:30 50.10406 14.26630 1173 ft 4 kts 34°
2026-05-08 05:30 50.10386 14.26604 1168 ft 4 kts 65°
2026-05-08 05:30 50.10385 14.26586 1171 ft 0 kts 124°
2026-05-08 05:33 50.10385 14.26587 1168 ft 0 kts 124°
2026-05-08 05:33 50.10378 14.26601 1168 ft 3 kts 128°
2026-05-08 05:34 50.10354 14.26614 1172 ft 5 kts 181°
2026-05-08 05:34 50.10317 14.26588 1168 ft 7 kts 211°
2026-05-08 05:34 50.10274 14.26545 1173 ft 7 kts 212°
2026-05-08 05:34 50.10228 14.26548 1174 ft 7 kts 144°
2026-05-08 05:35 50.10195 14.26607 1175 ft 8 kts 127°
2026-05-08 05:35 50.10161 14.26677 1177 ft 8 kts 128°
2026-05-08 05:35 50.10127 14.26747 1179 ft 8 kts 127°
2026-05-08 05:35 50.10095 14.26813 1184 ft 8 kts 127°
2026-05-08 05:36 50.10062 14.26879 1189 ft 7 kts 127°
2026-05-08 05:36 50.10031 14.26942 1193 ft 7 kts 128°
2026-05-08 05:36 50.09998 14.27012 1196 ft 9 kts 127°
2026-05-08 05:36 50.09956 14.27099 1198 ft 12 kts 127°
2026-05-08 05:37 50.09901 14.27214 1200 ft 15 kts 127°
2026-05-08 05:37 50.09830 14.27348 1202 ft 18 kts 135°
2026-05-08 05:37 50.09738 14.27491 1205 ft 19 kts 135°
2026-05-08 05:37 50.09646 14.27632 1208 ft 18 kts 136°
2026-05-08 05:38 50.09557 14.27767 1210 ft 18 kts 135°
2026-05-08 05:38 50.09472 14.27899 1214 ft 17 kts 135°
2026-05-08 05:38 50.09390 14.28026 1214 ft 16 kts 135°
2026-05-08 05:38 50.09310 14.28148 1214 ft 16 kts 135°
2026-05-08 05:39 50.09236 14.28257 1211 ft 14 kts 144°
2026-05-08 05:39 50.09146 14.28260 1210 ft 11 kts 212°
2026-05-08 05:39 50.09085 14.28184 1209 ft 11 kts 219°
2026-05-08 05:39 50.09064 14.28130 1207 ft 6 kts 275°
2026-05-08 05:40 50.09074 14.28105 1207 ft 1 kts 308°
2026-05-08 05:40 50.09096 14.28062 1207 ft 13 kts 308°
2026-05-08 05:40 50.09287 14.27669 1212 ft 79 kts 307°
2026-05-08 05:40 50.09743 14.26725 1207 ft 137 kts 307°
2026-05-08 05:41 50.10416 14.25342 1284 ft 176 kts 307°
2026-05-08 05:41 50.11153 14.23786 1982 ft 180 kts 308°
2026-05-08 05:41 50.11917 14.22211 2670 ft 188 kts 308°
2026-05-08 05:41 50.12756 14.20470 2917 ft 213 kts 308°
2026-05-08 05:42 50.13685 14.18539 3200 ft 230 kts 307°
2026-05-08 05:42 50.14692 14.16448 3485 ft 251 kts 307°
2026-05-08 05:42 50.15757 14.14239 4156 ft 257 kts 307°
2026-05-08 05:42 50.16782 14.11959 4995 ft 258 kts 295°
2026-05-08 05:43 50.17063 14.09222 5731 ft 260 kts 262°
2026-05-08 05:43 50.16418 14.06591 6512 ft 264 kts 236°
2026-05-08 05:43 50.15084 14.04619 7199 ft 270 kts 211°
2026-05-08 05:43 50.13309 14.03738 7851 ft 277 kts 185°
2026-05-08 05:44 50.11395 14.04191 8548 ft 284 kts 158°
2026-05-08 05:44 50.09764 14.05938 9244 ft 289 kts 133°
2026-05-08 05:44 50.08547 14.08453 9948 ft 293 kts 124°
2026-05-08 05:44 50.07424 14.11150 10453 ft 304 kts 122°
2026-05-08 05:45 50.06260 14.14042 10611 ft 326 kts 122°
2026-05-08 05:45 50.05025 14.17121 10927 ft 342 kts 122°
2026-05-08 05:45 50.03745 14.20294 11503 ft 349 kts 123°
2026-05-08 05:45 50.02442 14.23500 12186 ft 352 kts 123°
2026-05-08 05:46 50.01120 14.26731 12867 ft 357 kts 123°
2026-05-08 05:46 49.99772 14.30005 13529 ft 362 kts 124°
2026-05-08 05:46 49.98404 14.33317 14165 ft 367 kts 124°
2026-05-08 05:46 49.97016 14.36665 14832 ft 369 kts 124°
2026-05-08 05:47 49.95619 14.40027 15525 ft 372 kts 124°
2026-05-08 05:47 49.94209 14.43414 16192 ft 375 kts 124°
2026-05-08 05:47 49.92783 14.46832 16885 ft 379 kts 124°
2026-05-08 05:47 49.91346 14.50275 17545 ft 382 kts 124°
2026-05-08 05:48 49.89892 14.53750 18199 ft 386 kts 124°
2026-05-08 05:48 49.88424 14.57256 18792 ft 389 kts 124°
2026-05-08 05:48 49.86944 14.60785 19376 ft 392 kts 124°
2026-05-08 05:48 49.85454 14.64335 19962 ft 394 kts 124°
2026-05-08 05:49 49.83955 14.67902 20532 ft 397 kts 124°
2026-05-08 05:49 49.82440 14.71499 21106 ft 400 kts 124°
2026-05-08 05:49 49.80918 14.75111 21673 ft 403 kts 124°
2026-05-08 05:49 49.79380 14.78753 22224 ft 405 kts 124°
2026-05-08 05:50 49.77833 14.82413 22761 ft 408 kts 124°
2026-05-08 05:50 49.76272 14.86100 23288 ft 411 kts 124°
2026-05-08 05:50 49.74698 14.89813 23773 ft 414 kts 124°
2026-05-08 05:50 49.73112 14.93549 24193 ft 417 kts 124°
2026-05-08 05:51 49.71511 14.97316 24583 ft 421 kts 124°
2026-05-08 05:51 49.69896 15.01110 24973 ft 425 kts 124°
2026-05-08 05:51 49.68264 15.04937 25354 ft 428 kts 124°
2026-05-08 05:51 49.66620 15.08789 25736 ft 431 kts 124°
2026-05-08 05:52 49.64963 15.12663 26106 ft 434 kts 124°
2026-05-08 05:52 49.63291 15.16569 26468 ft 438 kts 125°
2026-05-08 05:52 49.61630 15.20442 26819 ft 441 kts 125°
2026-05-08 05:52 49.59929 15.24402 27178 ft 444 kts 125°
2026-05-08 05:53 49.58218 15.28381 27531 ft 447 kts 125°
2026-05-08 05:53 49.56493 15.32384 27871 ft 450 kts 125°
2026-05-08 05:53 49.54754 15.36415 28203 ft 453 kts 125°
2026-05-08 05:53 49.53000 15.40475 28521 ft 456 kts 125°
2026-05-08 05:54 49.51236 15.44552 28861 ft 459 kts 125°
2026-05-08 05:54 49.49438 15.48701 29179 ft 462 kts 125°
2026-05-08 05:54 49.47676 15.52761 29485 ft 464 kts 125°
2026-05-08 05:54 49.45872 15.56911 29780 ft 467 kts 125°
2026-05-08 05:55 49.44061 15.61070 30068 ft 470 kts 126°
2026-05-08 05:55 49.42236 15.65256 30324 ft 472 kts 126°
2026-05-08 05:55 49.40403 15.69452 30571 ft 474 kts 126°
2026-05-08 05:55 49.39158 15.72298 30751 ft 475 kts 126°
2026-05-08 05:56 49.37335 15.76461 30992 ft 477 kts 126°
2026-05-08 05:56 49.35481 15.80689 31241 ft 479 kts 126°
2026-05-08 05:56 49.33619 15.84929 31550 ft 479 kts 126°
2026-05-08 05:56 49.31759 15.89155 31887 ft 478 kts 126°
2026-05-08 05:57 49.29901 15.93373 32240 ft 477 kts 126°
2026-05-08 05:57 49.28047 15.97576 32551 ft 476 kts 126°
2026-05-08 05:57 49.26189 16.01777 32830 ft 477 kts 126°
2026-05-08 05:57 49.24330 16.05976 33138 ft 476 kts 126°
2026-05-08 05:58 49.22470 16.10169 33463 ft 475 kts 127°
2026-05-08 05:58 49.20616 16.14343 33773 ft 475 kts 127°
2026-05-08 05:58 49.18760 16.18516 34060 ft 475 kts 127°
2026-05-08 05:58 49.16899 16.22692 34308 ft 474 kts 127°
2026-05-08 05:59 49.15043 16.26851 34553 ft 474 kts 127°
2026-05-08 05:59 49.13184 16.31010 34787 ft 474 kts 127°
2026-05-08 05:59 49.11323 16.35168 35003 ft 474 kts 127°
2026-05-08 06:00 49.07617 16.43431 35070 ft 471 kts 127°
2026-05-08 06:00 49.03918 16.51651 35070 ft 469 kts 127°
2026-05-08 06:01 49.00225 16.59831 35077 ft 468 kts 128°
2026-05-08 06:01 48.96531 16.67989 35078 ft 468 kts 128°
2026-05-08 06:02 48.92856 16.76078 35084 ft 468 kts 128°
2026-05-08 06:02 48.89126 16.84268 35079 ft 468 kts 128°
2026-05-08 06:03 48.85438 16.92341 35085 ft 469 kts 128°
2026-05-08 06:03 48.81714 17.00470 35072 ft 469 kts 128°
2026-05-08 06:04 48.77648 17.08122 35070 ft 463 kts 141°
2026-05-08 06:04 48.72511 17.13797 35074 ft 456 kts 152°
2026-05-08 06:05 48.67144 17.18930 35061 ft 457 kts 152°
2026-05-08 06:05 48.61774 17.24097 35060 ft 458 kts 152°
2026-05-08 06:06 48.56411 17.29306 35060 ft 459 kts 152°
2026-05-08 06:06 48.51042 17.34531 35061 ft 459 kts 152°
2026-05-08 06:07 48.45671 17.39747 35054 ft 460 kts 152°
2026-05-08 06:07 48.40293 17.44955 35057 ft 459 kts 152°
2026-05-08 06:08 48.34916 17.50146 35058 ft 459 kts 152°
2026-05-08 06:08 48.29537 17.55325 35060 ft 459 kts 152°
2026-05-08 06:09 48.24159 17.60492 35058 ft 459 kts 153°
2026-05-08 06:09 48.18777 17.65648 35057 ft 459 kts 153°
2026-05-08 06:10 48.13399 17.70788 35052 ft 458 kts 153°
2026-05-08 06:10 48.08021 17.75916 35051 ft 458 kts 153°
2026-05-08 06:11 48.02648 17.81025 35050 ft 458 kts 153°
2026-05-08 06:11 47.97267 17.86130 35052 ft 458 kts 153°
2026-05-08 06:12 47.91888 17.91220 35058 ft 458 kts 153°
2026-05-08 06:12 47.86545 17.96266 35061 ft 458 kts 153°
2026-05-08 06:13 47.81144 18.01278 35066 ft 457 kts 154°
2026-05-08 06:13 47.75712 18.06198 35065 ft 458 kts 153°
2026-05-08 06:14 47.70456 18.11617 35068 ft 461 kts 149°
2026-05-08 06:14 47.65293 18.17272 35065 ft 462 kts 149°
2026-05-08 06:15 47.60117 18.22910 35060 ft 461 kts 149°
2026-05-08 06:15 47.54924 18.28490 35054 ft 462 kts 149°
2026-05-08 06:16 47.49713 18.34049 35056 ft 462 kts 150°
2026-05-08 06:16 47.44500 18.39591 35068 ft 462 kts 150°
2026-05-08 06:17 47.36659 18.47905 35060 ft 462 kts 150°
2026-05-08 06:17 47.31433 18.53431 35054 ft 462 kts 150°
2026-05-08 06:18 47.26207 18.58942 35056 ft 462 kts 150°
2026-05-08 06:18 47.20971 18.64450 35055 ft 463 kts 150°
2026-05-08 06:19 47.15731 18.69949 35054 ft 463 kts 150°
2026-05-08 06:19 47.10517 18.75407 35051 ft 463 kts 150°
2026-05-08 06:20 47.05263 18.80893 35063 ft 464 kts 151°
2026-05-08 06:20 47.00001 18.86375 35052 ft 464 kts 151°
2026-05-08 06:21 46.94730 18.91852 35054 ft 465 kts 151°
2026-05-08 06:21 46.89459 18.97316 35059 ft 465 kts 151°
2026-05-08 06:22 46.84180 19.02775 35058 ft 465 kts 151°
2026-05-08 06:22 46.78894 19.08228 35051 ft 465 kts 151°
2026-05-08 06:23 46.73610 19.13665 35056 ft 465 kts 151°
2026-05-08 06:23 46.68327 19.19088 35053 ft 464 kts 151°
2026-05-08 06:24 46.63049 19.24492 35055 ft 464 kts 151°
2026-05-08 06:24 46.57762 19.29893 35062 ft 464 kts 151°
2026-05-08 06:25 46.52487 19.35269 35060 ft 463 kts 151°
2026-05-08 06:25 46.47214 19.40629 35049 ft 462 kts 152°
2026-05-08 06:26 46.41945 19.45973 35055 ft 462 kts 152°
2026-05-08 06:26 46.36681 19.51299 35056 ft 461 kts 152°
2026-05-08 06:27 46.31424 19.56605 35060 ft 460 kts 152°
2026-05-08 06:27 46.26171 19.61895 35058 ft 460 kts 152°
2026-05-08 06:28 46.20923 19.67168 35061 ft 459 kts 152°
2026-05-08 06:28 46.15513 19.71908 35071 ft 450 kts 160°
2026-05-08 06:29 46.09907 19.75801 35065 ft 450 kts 161°
2026-05-08 06:29 46.04258 19.79682 35070 ft 450 kts 161°
2026-05-08 06:30 45.98616 19.83606 35068 ft 451 kts 161°
2026-05-08 06:30 45.92973 19.87553 35070 ft 451 kts 160°
2026-05-08 06:31 45.87329 19.91497 35070 ft 451 kts 160°
2026-05-08 06:31 45.81677 19.95437 35070 ft 451 kts 160°
2026-05-08 06:32 45.76030 19.99363 35068 ft 451 kts 160°
2026-05-08 06:32 45.70383 20.03280 35068 ft 450 kts 160°
2026-05-08 06:33 45.64753 20.07176 35060 ft 449 kts 160°
2026-05-08 06:33 45.59129 20.11060 35065 ft 448 kts 160°
2026-05-08 06:34 45.53521 20.14924 35058 ft 447 kts 160°
2026-05-08 06:34 45.47931 20.18768 35066 ft 445 kts 160°
2026-05-08 06:35 45.42355 20.22593 35066 ft 444 kts 160°
2026-05-08 06:35 45.36746 20.26196 35064 ft 441 kts 162°
2026-05-08 06:36 45.31105 20.29616 35062 ft 440 kts 163°
2026-05-08 06:36 45.25474 20.33032 35066 ft 440 kts 162°
2026-05-08 06:37 45.19853 20.36468 35067 ft 440 kts 162°
2026-05-08 06:37 45.14270 20.39888 35069 ft 440 kts 162°
2026-05-08 06:38 45.08643 20.43332 35071 ft 441 kts 162°
2026-05-08 06:38 45.03004 20.46775 35068 ft 442 kts 162°
2026-05-08 06:39 44.97360 20.50214 35074 ft 442 kts 162°
2026-05-08 06:39 44.91698 20.53656 35070 ft 443 kts 162°
2026-05-08 06:40 44.86032 20.57093 35079 ft 444 kts 162°
2026-05-08 06:40 44.80354 20.60529 35063 ft 444 kts 162°
2026-05-08 06:41 44.74672 20.63961 35056 ft 444 kts 162°
2026-05-08 06:41 44.68997 20.67382 35064 ft 444 kts 162°
2026-05-08 06:42 44.63317 20.70797 35056 ft 444 kts 162°
2026-05-08 06:42 44.57638 20.74206 35065 ft 444 kts 161°
2026-05-08 06:43 44.51959 20.77607 35066 ft 444 kts 161°
2026-05-08 06:43 44.47242 20.80426 35057 ft 443 kts 161°
2026-05-08 06:44 44.41569 20.83810 35055 ft 443 kts 161°
2026-05-08 06:44 44.35908 20.87180 35057 ft 442 kts 162°
2026-05-08 06:45 44.30249 20.90542 35063 ft 442 kts 162°
2026-05-08 06:45 44.24594 20.93894 35063 ft 441 kts 162°
2026-05-08 06:46 44.18938 20.97239 35055 ft 442 kts 162°
2026-05-08 06:46 44.13273 21.00583 35061 ft 442 kts 162°
2026-05-08 06:47 44.07609 21.03919 35061 ft 442 kts 162°
2026-05-08 06:47 44.01939 21.07252 35058 ft 442 kts 162°
2026-05-08 06:48 43.96269 21.10578 35068 ft 443 kts 162°
2026-05-08 06:48 43.90592 21.13901 35058 ft 443 kts 162°
2026-05-08 06:49 43.84912 21.17219 35063 ft 443 kts 162°
2026-05-08 06:49 43.79229 21.20532 35060 ft 444 kts 162°
2026-05-08 06:50 43.73546 21.23835 35180 ft 449 kts 163°
2026-05-08 06:50 43.70666 21.25507 35390 ft 449 kts 163°
2026-05-08 06:50 43.67788 21.27179 35694 ft 447 kts 163°
2026-05-08 06:51 43.64925 21.28841 35979 ft 446 kts 163°
2026-05-08 06:51 43.62063 21.30499 36179 ft 447 kts 163°
2026-05-08 06:51 43.59197 21.32157 36379 ft 447 kts 163°
2026-05-08 06:51 43.56329 21.33813 36606 ft 446 kts 163°
2026-05-08 06:52 43.53471 21.35463 36835 ft 446 kts 163°
2026-05-08 06:52 43.50603 21.37117 37035 ft 446 kts 163°
2026-05-08 06:52 43.47739 21.38766 37244 ft 446 kts 164°
2026-05-08 06:52 43.44879 21.40413 37455 ft 446 kts 164°
2026-05-08 06:53 43.42021 21.42056 37626 ft 446 kts 164°
2026-05-08 06:53 43.39157 21.43700 37801 ft 446 kts 164°
2026-05-08 06:53 43.36295 21.45342 38052 ft 445 kts 164°
2026-05-08 06:53 43.33441 21.46979 38264 ft 444 kts 164°
2026-05-08 06:54 43.30591 21.48610 38437 ft 445 kts 164°
2026-05-08 06:54 43.27733 21.50244 38595 ft 445 kts 164°
2026-05-08 06:54 43.24879 21.51875 38780 ft 444 kts 164°
2026-05-08 06:54 43.22026 21.53503 38918 ft 444 kts 164°
2026-05-08 06:55 43.16314 21.56759 39068 ft 446 kts 164°
2026-05-08 06:55 43.10568 21.60026 39065 ft 448 kts 164°
2026-05-08 06:56 43.04811 21.63295 39065 ft 448 kts 164°
2026-05-08 06:56 42.99061 21.66555 39077 ft 447 kts 164°
2026-05-08 06:57 42.93278 21.69644 39069 ft 444 kts 168°
2026-05-08 06:57 42.87415 21.72236 39082 ft 442 kts 169°
2026-05-08 06:58 42.81539 21.74753 39076 ft 443 kts 169°
2026-05-08 06:58 42.75672 21.77306 39081 ft 443 kts 169°
2026-05-08 06:59 42.69810 21.79883 39081 ft 443 kts 169°
2026-05-08 06:59 42.63947 21.82463 39071 ft 443 kts 169°
2026-05-08 07:00 42.58092 21.85035 39076 ft 442 kts 169°
2026-05-08 07:00 42.52246 21.87597 39081 ft 441 kts 168°
2026-05-08 07:01 42.46404 21.90151 39084 ft 441 kts 168°
2026-05-08 07:01 42.40565 21.92698 39091 ft 441 kts 168°
2026-05-08 07:02 42.34759 21.95227 39086 ft 441 kts 168°
2026-05-08 07:02 42.28910 21.97769 39093 ft 442 kts 168°
2026-05-08 07:03 42.23045 22.00313 39081 ft 443 kts 168°
2026-05-08 07:03 42.17174 22.02855 39079 ft 443 kts 168°
2026-05-08 07:04 42.11307 22.05393 39090 ft 443 kts 168°
2026-05-08 07:04 42.05438 22.07924 39099 ft 443 kts 168°
2026-05-08 07:05 41.99589 22.10607 39097 ft 445 kts 167°
2026-05-08 07:05 41.93760 22.13443 39091 ft 445 kts 166°
2026-05-08 07:06 41.87931 22.16269 39096 ft 445 kts 167°
2026-05-08 07:06 41.82097 22.19066 39089 ft 445 kts 167°
2026-05-08 07:07 41.76257 22.21849 39102 ft 445 kts 167°
2026-05-08 07:07 41.70423 22.24623 39098 ft 445 kts 167°
2026-05-08 07:08 41.64590 22.27391 39100 ft 444 kts 167°
2026-05-08 07:08 41.58761 22.30153 39091 ft 444 kts 167°
2026-05-08 07:09 41.52945 22.32903 39092 ft 443 kts 167°
2026-05-08 07:09 41.47152 22.35638 39089 ft 441 kts 167°
2026-05-08 07:10 41.41382 22.38357 39093 ft 439 kts 167°
2026-05-08 07:10 41.35622 22.41063 39082 ft 439 kts 168°
2026-05-08 07:11 41.29875 22.43761 39095 ft 438 kts 168°